Home > Weather > Bairnsdale > Past weeks

Flag for Australia Past Weather in Bairnsdale, Victoria, Australia — Yesterday and Last 2 Weeks

Now
53 °F

Cool.


Feels Like: 49 °F
Forecast: 35 / 61 °F
Wind: 14 mph from West

Location: Bairnsdale Airport

Current Time: Aug 26, 2016 at 11:42:59 AM

Latest Report: Aug 26, 2016 at 11:00 AM


Visibility: N/A

Pressure: 30.14 "Hg

Humidity: 55%

Dew Point: 37 °F

Location of BairnsdaleLocation

Past Weather in Bairnsdale — Graph

°F

Bairnsdale Temperature Yesterday

Maximum temperature yesterday: 54 °F (at 3:00 PM)
Minimum temperature yesterday: 37 °F (at 6:00 AM)
Average temperature yesterday: 45 °F

High & Low Weather Summary for the Past Weeks

 TemperatureHumidityPressure
High72 °F (Aug 18, 3:00 PM)99% (Aug 18, 8:00 AM)30.46 "Hg (Aug 18, 8:00 AM)
Low36 °F (Aug 12, 5:00 AM)34% (Aug 16, 12:00 PM)29.66 "Hg (Aug 19, 3:00 PM)
Average50 °F72%30.06 "Hg
* Reported Aug 11 9:00 AM — Aug 26 9:00 AM, Bairnsdale, Weather by CustomWeather, © 2016

Note: Actual official high and low records may vary slightly from our data, if they occured in-between our weather recording intervals... More about our weather records

Advertising

Bairnsdale Weather History for the Previous 24 Hours

Scroll right to see more
 ConditionsComfort  
Time TempWeatherWind HumidityBarometerVisibility
9:00 AM
Fri, Aug 26
50 °FPartly sunny.10 mph72%30.15 "HgN/A
8:00 AM46 °FCool.10 mph80%30.14 "HgN/A
6:00 AM45 °FPassing clouds.8 mph83%30.11 "HgN/A
5:00 AM46 °FCool.10 mph83%30.09 "HgN/A
3:00 AM45 °FPassing clouds.12 mph83%30.06 "HgN/A
2:00 AM44 °FQuite cool.12 mph84%30.06 "HgN/A
12:00 AM40 °FChilly.8 mph89%30.06 "HgN/A
11:00 PM
Thu, Aug 25
44 °FQuite cool.9 mph82%30.06 "HgN/A
9:00 PM45 °FOvercast.10 mph82%30.04 "HgN/A
8:00 PM43 °FQuite cool.8 mph86%30.03 "HgN/A
6:00 PM44 °FPassing clouds.8 mph84%29.98 "HgN/A
5:00 PM47 °FCool.7 mph81%29.95 "HgN/A
3:00 PM54 °FPartly sunny.17 mph56%29.93 "HgN/A
2:00 PM53 °FCool.20 mph49%29.91 "HgN/A
12:00 PM52 °FPartly sunny.14 mph63%29.92 "HgN/A
11:00 AM50 °FCool.15 mph66%29.93 "HgN/A
Weather by CustomWeather, © 2016

See weather overviewHow to use our weather pages